AU224 Weather Reports


Display with metric or nautical units.
time (UTC)temp
F
wind
direction
speed
MPH
gust
MPH
rain 1hr
in
rain 24hr
in
rain mn
in
humidity
%
barometer
mb
20260509001542 48 0 0.0 0.0 0.00 0.00 0.00 73 1013.2
20260509000046 48 0 0.0 0.0 0.00 0.00 0.00 71 1013.3
20260508234542 48 0 0.0 0.0 0.00 0.00 0.00 70 1013.4
20260508233044 48 0 0.0 0.0 0.00 0.00 0.00 70 1013.4
20260508231551 49 0 0.0 0.0 0.00 0.00 0.00 70 1013.4
20260508230050 49 0 0.0 0.0 0.00 0.00 0.00 70 1013.5
20260508224551 49 0 0.0 0.0 0.00 0.00 0.00 70 1013.5
20260508223047 49 0 0.0 0.0 0.00 0.00 0.00 70 1013.4
20260508221541 50 0 0.0 0.0 0.00 0.00 0.00 69 1013.5
20260508220048 50 0 0.0 0.0 0.00 0.00 0.00 68 1013.4
20260508214550 51 0 0.0 0.0 0.00 0.00 0.00 67 1013.4
20260508213043 51 0 0.0 0.0 0.00 0.00 0.00 67 1013.4
20260508211548 52 0 0.0 0.0 0.00 0.00 0.00 66 1013.2
20260508210044 52 0 0.0 0.0 0.00 0.00 0.00 66 1013.2
20260508204550 53 0 0.0 0.0 0.00 0.00 0.00 65 1013.2
20260508203040 53 0 0.0 0.0 0.00 0.00 0.00 64 1013.2
20260508201543 54 0 0.0 0.0 0.00 0.00 0.00 63 1013.2
20260508200104 55 0 0.0 0.0 0.00 0.00 0.00 62 1013.0
20260508194541 55 0 0.0 2.0 0.00 0.00 0.00 61 1013.0
20260508193103 56 0 0.0 3.0 0.00 0.00 0.00 60 1012.8
20260508191542 57 0 0.0 2.0 0.00 0.00 0.00 59 1012.6
20260508190040 58 94 0.0 2.0 0.00 0.00 0.00 58 1012.4
20260508184546 59 0 0.0 1.0 0.00 0.00 0.00 57 1012.2
20260508183057 60 0 0.0 6.0 0.00 0.00 0.00 56 1012.1
20260508181559 60 0 0.0 6.0 0.00 0.00 0.00 56 1012.0
20260508180043 60 71 1.0 7.0 0.00 0.00 0.00 55 1011.8
20260508174544 61 0 1.0 10.0 0.00 0.00 0.00 53 1011.7
20260508173049 62 52 1.0 8.0 0.00 0.00 0.00 52 1011.5
20260508171545 63 76 2.0 12.0 0.00 0.00 0.00 51 1011.5
20260508170052 63 0 1.0 10.0 0.00 0.00 0.00 51 1011.2
20260508164549 64 360 2.0 9.0 0.00 0.00 0.00 50 1011.3
20260508163047 64 0 0.0 7.0 0.00 0.00 0.00 50 1011.3
20260508161551 65 53 1.0 10.0 0.00 0.00 0.00 48 1011.3
20260508160041 67 65 0.0 8.0 0.00 0.00 0.00 47 1011.4
20260508154606 67 103 0.0 12.0 0.00 0.00 0.00 50 1011.3
20260508153049 67 0 0.0 6.0 0.00 0.00 0.00 46 1011.4
20260508151541 65 0 0.0 7.0 0.00 0.00 0.00 48 1011.5
20260508150047 64 0 0.0 4.0 0.00 0.00 0.00 50 1011.6
20260508144559 65 57 4.0 9.0 0.00 0.00 0.00 48 1011.8
20260508143043 67 76 1.0 8.0 0.00 0.00 0.00 49 1011.7
20260508141542 66 125 1.0 8.0 0.00 0.00 0.00 48 1011.7
20260508140043 67 0 0.0 10.0 0.00 0.00 0.00 47 1011.9
20260508134554 66 55 1.0 8.0 0.00 0.00 0.00 49 1012.1
20260508133051 66 360 0.0 8.0 0.00 0.00 0.00 51 1012.1
20260508131547 66 28 2.0 9.0 0.00 0.00 0.00 49 1012.1
20260508130042 64 0 1.0 8.0 0.00 0.00 0.00 52 1012.3
20260508124541 66 0 1.0 9.0 0.00 0.00 0.00 51 1012.4
20260508123051 65 0 1.0 9.0 0.00 0.00 0.00 52 1012.5
20260508121552 64 26 0.0 8.0 0.00 0.00 0.00 53 1012.6
20260508120042 65 0 0.0 10.0 0.00 0.00 0.00 52 1012.4
20260508114548 65 0 0.0 9.0 0.00 0.00 0.00 54 1012.4
20260508113054 64 0 1.0 10.0 0.00 0.00 0.00 55 1012.5
20260508111552 64 55 1.0 7.0 0.00 0.00 0.00 57 1012.6
20260508110048 64 86 1.0 9.0 0.00 0.00 0.00 58 1012.8
20260508104544 62 360 1.0 9.0 0.00 0.00 0.00 56 1012.8
20260508103045 62 61 0.0 11.0 0.00 0.00 0.00 61 1012.9
20260508101542 61 0 0.0 5.0 0.00 0.00 0.00 61 1013.0
20260508100059 62 0 1.0 6.0 0.00 0.00 0.00 60 1013.2
20260508094601 59 77 0.0 10.0 0.00 0.00 0.00 64 1013.1
20260508093048 59 0 1.0 9.0 0.00 0.00 0.00 67 1013.1
20260508091547 57 119 1.0 7.0 0.00 0.00 0.00 68 1013.1
20260508090107 56 67 0.0 8.0 0.00 0.00 0.00 70 1013.2
20260508084548 57 0 2.0 7.0 0.00 0.00 0.00 67 1013.1
20260508083040 55 74 2.0 9.0 0.00 0.00 0.00 71 1013.0
20260508081602 54 56 1.0 7.0 0.00 0.00 0.00 72 1013.0
20260508080043 53 29 1.0 6.0 0.00 0.00 0.00 75 1013.1
20260508074546 52 0 1.0 5.0 0.00 0.00 0.00 75 1013.1
20260508073103 51 0 0.0 0.0 0.00 0.00 0.00 78 1013.2
20260508071548 49 0 0.0 4.0 0.00 0.00 0.00 79 1013.0
20260508070049 49 0 0.0 1.0 0.00 0.00 0.00 82 1012.9
20260508064557 48 0 0.0 3.0 0.00 0.00 0.00 80 1013.0
20260508063055 48 0 0.0 0.0 0.00 0.00 0.00 80 1012.9
20260508061550 47 0 0.0 0.0 0.00 0.00 0.00 82 1012.8
20260508054550 44 0 0.0 0.0 0.00 0.00 0.00 86 1012.6
20260508053041 43 0 0.0 0.0 0.00 0.00 0.00 86 1012.6
20260508051604 41 0 0.0 0.0 0.00 0.00 0.00 86 1012.5
20260508050045 41 0 0.0 2.0 0.00 0.00 0.00 85 1012.4
20260508044547 39 0 0.0 0.0 0.00 0.00 0.00 84 1012.2
20260508043046 37 0 0.0 0.0 0.00 0.00 0.00 81 1012.1
20260508041552 38 0 0.0 0.0 0.00 0.00 0.00 81 1012.0
20260508040052 38 0 0.0 0.0 0.00 0.00 0.00 80 1012.0
20260508034550 38 0 0.0 0.0 0.00 0.00 0.00 80 1012.0
20260508033055 39 0 0.0 0.0 0.00 0.00 0.00 80 1011.9
20260508031555 39 0 0.0 0.0 0.00 0.00 0.00 80 1011.8
20260508030058 39 0 0.0 0.0 0.00 0.00 0.00 80 1011.8
20260508024613 40 0 0.0 0.0 0.00 0.00 0.00 81 1011.7
20260508023045 40 0 0.0 0.0 0.00 0.00 0.00 81 1011.9
20260508021551 40 0 0.0 0.0 0.00 0.00 0.00 81 1011.9
20260508020050 40 0 0.0 0.0 0.00 0.00 0.00 81 1011.9
20260508014553 40 0 0.0 0.0 0.00 0.00 0.00 81 1012.1
20260508013042 40 0 0.0 0.0 0.00 0.00 0.00 80 1012.1
20260508011547 40 0 0.0 0.0 0.00 0.00 0.00 79 1012.0
20260508010054 41 0 0.0 0.0 0.00 0.00 0.00 78 1012.0
20260508004552 41 0 0.0 0.0 0.00 0.00 0.00 78 1012.2
20260508003049 41 0 0.0 0.0 0.00 0.00 0.00 78 1012.3